Miscellaneous Hydrologic Data Report
Issued by NWS (Baltimore/Washington) Sterling, VA
1 of 54 available versions  First Miscellaneous Hydrologic Data Report Previous Miscellaneous Hydrologic Data Report  Print this page Close this Window


000
ASUS41 KLWX 121711
RWRLWX

REGIONAL WEATHER ROUNDUP
NATIONAL WEATHER SERVICE BALTIMORE MD/WASHINGTON DC
1200 PM EST TUE DEC 12 2017

Note: "FAIR" indicates few or no clouds below 12,000 feet
with no significant weather and/or obstructions to visibility.
 TC=TEMPERATURE CELSIUS

 * =Non NWS site. Station does not report precipitation (e.g. rain,
    snow, etc.), thunder, or fog.

DCZ001-MDZ009-015-VAZ040>042-051-053>054-121800-
WASHINGTON METRO

CITY           SKY/WX    TMP DP  RH WIND       PRES   REMARKS
WASHINGTON NAT CLOUDY    46  33  60 SW7       29.56F
DULLES         CLOUDY    42  33  70 W3        29.55F
ANDREWS AFB    CLOUDY    45  32  60 SW8       29.54F
FT BELVOIR     PTSUNNY   45  32  61 CALM      29.56F
QUANTICO       CLOUDY    46  33  60 NW5       29.56F
COLLEGE PARK*  CLOUDY    45  31  58 CALM      29.55F
LEESBURG*      CLOUDY    46  32  57 NW21G32   29.56F
MANASSAS*      CLOUDY    41  32  70 CALM      29.56F
GAITHERSBURG*  CLOUDY    41  31  67 W5        29.53F

$$

MDZ006>007-011-014-121800-
BALTIMORE METRO

CITY           SKY/WX    TMP DP  RH WIND       PRES   REMARKS
BWI AIRPORT    CLOUDY    45  32  60 W8        29.53F
MD SCIENCE CTR   N/A     46  32  58 MISG      29.54F
MARTIN STATE   CLOUDY    45  36  70 SW5       29.55F
ANNAPOLIS      CLOUDY    45  35  68 CALM      29.54F
FORT MEADE*    CLOUDY    43  32  65 W5        29.56F

$$

MDZ012-015-019>023-121800-
MARYLAND EASTERN SHORE

CITY           SKY/WX    TMP DP  RH WIND       PRES   REMARKS
OCEAN CITY     PTSUNNY   47  39  74 W13       29.54F
SALISBURY      MOSUNNY   46  35  65 W13       29.54F
BAY BRIDGE AP* CLOUDY    43  34  70 SW3       29.55F
CAMBRIDGE*     SUNNY     46  36  66 W6        29.56F
EASTON*        PTSUNNY   46  34  61 W8        29.58F

$$

MDZ017>025-121800-
SOUTHERN MARYLAND

CITY           SKY/WX    TMP DP  RH WIND       PRES   REMARKS
PATUXENT RIVER CLOUDY    46  34  62 W6        29.56F
ST INIGOES     CLOUDY    47  36  65 W9        29.56F
LEONARDTOWN*   CLOUDY    43  32  65 W7        29.57F

$$

MDZ003>005-121800-
NORTH CENTRAL MARYLAND

CITY           SKY/WX    TMP DP  RH WIND       PRES   REMARKS
FREDERICK*     CLOUDY    46  27  46 W14G23    29.58
HAGERSTOWN APT CLOUDY    43  29  57 NW21      29.55F
WESTMINSTER*   CLOUDY    43  34  70 W15       29.51F

$$

MDZ501>502-121800-
WESTERN MARYLAND

CITY           SKY/WX    TMP DP  RH WIND       PRES   REMARKS
OAKLAND*       CLOUDY    25  23  93 W14G24    29.51F VSB 1/2 WCI  13
CUMBERLAND*    PTSUNNY   37  28  70 NW14G21   29.65S WCI  29

$$

VAZ025>031-121800-
SHENANDOAH VALLEY

CITY           SKY/WX    TMP DP  RH WIND       PRES   REMARKS
WINCHESTER*    CLOUDY    41  28  60 NW17G23   29.56F
FRONT ROYAL*   CLOUDY    43  28  56 MISG      29.56F
LURAY*         CLOUDY    45  28  53 W12G21    29.57F
NEW MARKET*    CLOUDY    42  27  54 NW7       29.58S
STAUNTON*      CLOUDY    43  27  52 W8        29.59F
WAYNESBORO*    CLOUDY    42  28  56 W6        29.58F

$$

WVZ021-048>050-054>055-121800-
EASTERN WEST VIRGINIA PANHANDLE

CITY           SKY/WX    TMP DP  RH WIND       PRES   REMARKS
MARTINSBURG    CLOUDY    43  27  53 W13       29.56F
PETERSBURG*    CLOUDY    38  24  57 W9G17     29.62F

$$

VAZ036>039-050-121800-
CENTRAL FOOTHILLS

CITY           SKY/WX    TMP DP  RH WIND       PRES   REMARKS
CHARLOTTESVILL CLOUDY    49  28  44 VRB6      29.56F
CULPEPER*      CLOUDY    43  32  64 W3        29.57F
ORANGE*        CLOUDY    46  32  57 W8        29.56F
GORDONSVILLE*  CLOUDY    49  30  46 CALM      29.56F
WARRENTON*     CLOUDY    43  30  60 CALM      29.55F

$$

VAZ055>057-121800-
NORTH AND CENTRAL PIEDMONT

CITY           SKY/WX    TMP DP  RH WIND       PRES   REMARKS
FREDERICKSBRG* CLOUDY    47  34  60 W5        29.55F
STAFFORD*      CLOUDY    44  32  62 W6        29.59F

$$

NCZ024-NYZ072-PAZ021-071-VAZ022-071-121800-
OTHER REGIONAL OBSERVATIONS

CITY           SKY/WX    TMP DP  RH WIND       PRES   REMARKS
NEW YORK CITY  CLOUDY    49  38  65 W8G22     29.51F
PHILADELPHIA   CLOUDY    45  35  68 SW12      29.52F
PITTSBURGH     LGT SNOW  29  22  75 NW22      29.67S VSB 1   WCI  15
ROANOKE        CLOUDY    44  27  51 NW23G31   29.65F
RICHMOND       CLOUDY    49  33  54 W14       29.57F
RALEIGH        CLOUDY    49  35  58 W8        29.66F

$$

ANZ530>537-121800-
MARINE OBSERVATIONS

STATION/POSITION TIME  TEMP    WIND        PRES
                       AIR SEA DIR/SP/G
                 (UTC) (F)     (DEG/KT/KT) (MB)
THOMAS PT LIGHT  1700   44 48  220/  7/  8   N/A
BALT KEY BRIDGE  1642   44     240/  5/  6 1000.2F
COVE POINT       1642   44     290/  6/  9 1001.4F
LEWISETTA        1642   46 45  310/ 10/ 13 1001.0F
SOLOMONS ISLAND  1642   45 48  260/  3/  5 1000.7F
PINEY POINT      1648          330/ 14/ 16   N/A

$$


Close this window


The National Weather Service prepares its forecasts and other services in collaboration with agencies like the US Geological Survey, US Bureau of Reclamation, US Army Corps of Engineers, Natural Resource Conservation Service, National Park Service, ALERT Users Group, Bureau of Indian Affairs, and many state and local emergency managers across the country. For details, please click here.

National Weather Service
(Baltimore/Washington) Sterling Weather Forecast Office
43858 Weather Service Rd.
Sterling, VA 20166
(703) 996-2200
Page last modified: 12-Dec-2017 5:11 PM
Disclaimer
Credits
Glossary
Privacy Policy
About Us
Career Opportunities